United States

Cheney, KS Weather Archive

Below you will find the last 24 hours of weather readings for Cheney KS

Cheney KS Today's Weather Data

Observed at: Cheney, KS

Hour Observerd Temp Pressure Visibility Humidity Dew Point Wind
08:00 Partly Cloudy 30°F (-1.1°C) 98.21 kPa 10 miles 79% 24.1°F (-4.4°C) 5 mph S 173.75°
07:00 Partly Cloudy 30°F (-1.1°C) 98.21 kPa 10 miles 79% 24.1°F (-4.4°C) 5 mph S 173.75°
06:00 Partly Cloudy 29°F (-1.7°C) 98.21 kPa 10 miles 78% 23°F (-5°C) 6 mph S 173.75°
05:00 Fair 29°F (-1.7°C) 98.21 kPa 10 miles 78% 23°F (-5°C) 6 mph S 173.75°
04:00 Fair 29°F (-1.7°C) 98.21 kPa 10 miles 78% 23°F (-5°C) 6 mph S 173.75°
03:00 Fair 33°F (0.6°C) 98.21 kPa 10 miles 70% 24.1°F (-4.4°C) 6 mph S 173.75°
02:00 Fair 32°F (0°C) 98.21 kPa 10 miles 73% 24.1°F (-4.4°C) 6 mph S 173.75°
01:00 Fair 32°F (0°C) 98.21 kPa 10 miles 73% 24.1°F (-4.4°C) 6 mph S 173.75°
00:00 Fair 32°F (0°C) 98.21 kPa 10 miles 73% 24.1°F (-4.4°C) 6 mph S 173.75°
23:00 Fair 35°F (1.7°C) 98.21 kPa 10 miles 64% 24.1°F (-4.4°C) 6 mph S 173.75°
22:00 Fair 37°F (2.8°C) 98.21 kPa 10 miles 62% 25°F (-3.9°C) 8 mph S 173.75°
21:00 Fair 37°F (2.8°C) 98.21 kPa 10 miles 62% 25°F (-3.9°C) 8 mph S 173.75°
20:00 Fair 41°F (5°C) 98.21 kPa 10 miles 55% 26.1°F (-3.3°C) 10 mph S 173.75°
19:00 Fair 41°F (5°C) 98.21 kPa 10 miles 55% 26.1°F (-3.3°C) 10 mph S 173.75°
18:00 A Few Clouds 44°F (6.7°C) 98.21 kPa 10 miles 47% 25°F (-3.9°C) 8 mph S 173.75°
17:00 A Few Clouds 44°F (6.7°C) 98.21 kPa 10 miles 47% 25°F (-3.9°C) 8 mph S 173.75°25 mph
16:00 A Few Clouds 56°F (13.3°C) 98.21 kPa 10 miles 34% 28°F (-2.2°C) 12 mph SW 218.75°26 mph
15:00 A Few Clouds 56°F (13.3°C) 98.21 kPa 10 miles 34% 28°F (-2.2°C) 12 mph SW 218.75°26 mph
14:00 A Few Clouds 56°F (13.3°C) 98.21 kPa 10 miles 34% 28°F (-2.2°C) 12 mph SW 218.75°26 mph
13:00 Partly Cloudy 53°F (11.7°C) 101.59 kPa 10 miles 38% 28°F (-2.2°C) 15 mph S 173.75°23 mph
12:00 Partly Cloudy 53°F (11.7°C) 101.59 kPa 10 miles 38% 28°F (-2.2°C) 15 mph S 173.75°25 mph
11:00 Partly Cloudy 50°F (10°C) 101.59 kPa 10 miles 46% 30°F (-1.1°C) 12 mph S 173.75°
10:00 A Few Clouds 39°F (3.9°C) 101.59 kPa 10 miles 70% 30°F (-1.1°C) 3 mph W 263.75°
09:00 A Few Clouds 39°F (3.9°C) 101.59 kPa 10 miles 70% 30°F (-1.1°C) 3 mph W 263.75°


Home | Earthquakes | About Us | Contact Us | Privacy

Copyright Friendly Forecast 2012 - 2022